| time (UTC) | temp F | wind direction | speed knots | gust knots | rain 1hr in | rain 24hr in | rain mn in | humidity % | barometer mb |
| 20260505223004 | 36 | 347 | 1.7 | 6.1 | 0.00 | 0.00 | 0.00 | 92 | 1010.0 |
| 20260505221504 | 38 | 354 | 2.6 | 7.8 | 0.00 | 0.00 | 0.00 | 94 | 1009.8 |
| 20260505214503 | 36 | 27 | 0.0 | 0.0 | 0.00 | 0.00 | 0.00 | 92 | 1009.2 |
| 20260505213004 | 36 | 27 | 0.0 | 0.0 | 0.00 | 0.00 | 0.00 | 92 | 1009.2 |
| 20260505211504 | 37 | 27 | 1.7 | 4.3 | 0.00 | 0.00 | 0.00 | 91 | 1009.3 |
| 20260505210003 | 37 | 43 | 1.7 | 4.3 | 0.00 | 0.00 | 0.00 | 90 | 1009.0 |
| 20260505204504 | 38 | 58 | 2.6 | 4.3 | 0.00 | 0.00 | 0.00 | 90 | 1008.8 |
| 20260505203004 | 39 | 70 | 1.7 | 2.6 | 0.00 | 0.00 | 0.00 | 89 | 1008.8 |
| 20260505201504 | 39 | 71 | 1.7 | 4.3 | 0.00 | 0.00 | 0.00 | 88 | 1008.8 |
| 20260505194504 | 42 | 98 | 0.0 | 0.0 | 0.00 | 0.00 | 0.00 | 85 | 1008.3 |
| 20260505193004 | 43 | 98 | 0.0 | 0.0 | 0.00 | 0.00 | 0.00 | 84 | 1008.3 |
| 20260505191504 | 44 | 98 | 0.0 | 0.0 | 0.00 | 0.00 | 0.00 | 81 | 1008.2 |
| 20260505184504 | 50 | 98 | 0.9 | 4.3 | 0.00 | 0.00 | 0.00 | 71 | 1008.1 |
| 20260505181503 | 52 | 110 | 1.7 | 7.0 | 0.00 | 0.00 | 0.00 | 65 | 1007.9 |
| 20260505180004 | 53 | 103 | 0.9 | 6.1 | 0.00 | 0.00 | 0.00 | 63 | 1007.5 |
| 20260505174504 | 54 | 109 | 0.9 | 8.7 | 0.00 | 0.00 | 0.00 | 61 | 1007.5 |
| 20260505173003 | 55 | 100 | 4.3 | 10.4 | 0.00 | 0.00 | 0.00 | 59 | 1007.5 |
| 20260505171505 | 55 | 101 | 5.2 | 8.7 | 0.00 | 0.00 | 0.00 | 57 | 1007.3 |
| 20260505170003 | 56 | 76 | 5.2 | 10.4 | 0.00 | 0.00 | 0.00 | 52 | 1007.3 |
| 20260505164504 | 57 | 79 | 6.1 | 11.3 | 0.00 | 0.00 | 0.00 | 50 | 1007.3 |
| 20260505163004 | 58 | 63 | 5.2 | 10.4 | 0.00 | 0.00 | 0.00 | 44 | 1007.3 |
| 20260505161503 | 58 | 61 | 2.6 | 10.4 | 0.00 | 0.00 | 0.00 | 36 | 1007.3 |
| 20260505153004 | 63 | 84 | 2.6 | 7.8 | 0.00 | 0.00 | 0.00 | 27 | 1007.1 |
| 20260505151503 | 63 | 302 | 3.5 | 12.2 | 0.00 | 0.00 | 0.00 | 25 | 1007.1 |
| 20260505124505 | 64 | 285 | 5.2 | 12.2 | 0.00 | 0.00 | 0.00 | 32 | 1007.2 |
| 20260505123004 | 63 | 322 | 6.1 | 11.3 | 0.00 | 0.00 | 0.00 | 36 | 1007.2 |
| 20260505121503 | 61 | 307 | 1.7 | 12.2 | 0.00 | 0.00 | 0.00 | 36 | 1007.2 |
| 20260505114503 | 63 | 266 | 3.5 | 13.9 | 0.00 | 0.00 | 0.00 | 38 | 1007.1 |
| 20260505111503 | 63 | 242 | 8.7 | 14.8 | 0.00 | 0.00 | 0.00 | 40 | 1007.2 |
| 20260505101504 | 61 | 257 | 4.3 | 13.9 | 0.00 | 0.00 | 0.00 | 43 | 1007.2 |
| 20260505094505 | 60 | 247 | 9.6 | 15.6 | 0.00 | 0.00 | 0.00 | 44 | 1007.3 |
| 20260505093004 | 61 | 291 | 5.2 | 13.0 | 0.00 | 0.00 | 0.00 | 45 | 1007.3 |
| 20260505091504 | 61 | 303 | 7.8 | 12.2 | 0.00 | 0.00 | 0.00 | 47 | 1007.3 |
| 20260505090005 | 59 | 286 | 5.2 | 14.8 | 0.00 | 0.00 | 0.00 | 50 | 1007.3 |
| 20260505084503 | 59 | 278 | 5.2 | 13.0 | 0.00 | 0.01 | 0.00 | 54 | 1007.4 |
| 20260505081503 | 57 | 248 | 7.8 | 13.0 | 0.00 | 0.01 | 0.00 | 58 | 1007.4 |
| 20260505080004 | 56 | 273 | 6.1 | 13.9 | 0.00 | 0.01 | 0.00 | 60 | 1007.4 |
| 20260505074503 | 57 | 263 | 6.1 | 13.9 | 0.00 | 0.01 | 0.00 | 60 | 1007.4 |
| 20260505073004 | 56 | 263 | 3.5 | 10.4 | 0.00 | 0.01 | 0.00 | 63 | 1007.5 |
| 20260505071504 | 55 | 250 | 4.3 | 13.0 | 0.00 | 0.01 | 0.00 | 66 | 1007.5 |
| 20260505070004 | 55 | 276 | 6.1 | 15.6 | 0.00 | 0.01 | 0.00 | 65 | 1007.5 |
| 20260505064503 | 54 | 241 | 4.3 | 13.0 | 0.00 | 0.01 | 0.00 | 67 | 1007.3 |
| 20260505063004 | 53 | 257 | 6.1 | 13.0 | 0.00 | 0.01 | 0.00 | 69 | 1007.3 |
| 20260505061504 | 52 | 260 | 8.7 | 13.0 | 0.00 | 0.01 | 0.00 | 71 | 1007.4 |
| 20260505060003 | 51 | 271 | 7.0 | 11.3 | 0.00 | 0.01 | 0.00 | 72 | 1007.4 |
| 20260505054504 | 50 | 267 | 8.7 | 14.8 | 0.00 | 0.01 | 0.00 | 76 | 1007.4 |
| 20260505053004 | 49 | 268 | 7.8 | 11.3 | 0.00 | 0.01 | 0.00 | 79 | 1007.4 |
| 20260505051504 | 48 | 277 | 4.3 | 10.4 | 0.00 | 0.01 | 0.00 | 85 | 1007.4 |
| 20260505041504 | 38 | 247 | 0.9 | 4.3 | 0.00 | 0.07 | 0.00 | 95 | 1007.1 |
| 20260505040005 | 37 | 240 | 1.7 | 4.3 | 0.00 | 0.07 | 0.00 | 95 | 1007.1 |
| 20260505034504 | 36 | 237 | 3.5 | 6.1 | 0.00 | 0.07 | 0.00 | 94 | 1007.0 |
| 20260505033004 | 36 | 227 | 3.5 | 6.1 | 0.00 | 0.07 | 0.00 | 94 | 1006.8 |
| 20260505031503 | 36 | 229 | 2.6 | 5.2 | 0.00 | 0.08 | 0.00 | 93 | 1006.8 |
| 20260505030004 | 36 | 223 | 4.3 | 5.2 | 0.00 | 0.08 | 0.00 | 93 | 1006.7 |
| 20260505024504 | 36 | 230 | 2.6 | 4.3 | 0.00 | 0.08 | 0.00 | 92 | 1006.7 |
| 20260505023004 | 37 | 229 | 2.6 | 5.2 | 0.00 | 0.09 | 0.00 | 91 | 1006.7 |
| 20260505014504 | 40 | 246 | 2.6 | 5.2 | 0.00 | 0.09 | 0.00 | 87 | 1006.7 |
| 20260505011503 | 43 | 247 | 4.3 | 7.8 | 0.00 | 0.09 | 0.00 | 85 | 1006.7 |
| 20260505010004 | 43 | 260 | 5.2 | 10.4 | 0.00 | 0.09 | 0.00 | 83 | 1006.6 |
| 20260505004504 | 44 | 263 | 2.6 | 6.1 | 0.00 | 0.09 | 0.00 | 80 | 1006.6 |
| 20260505003004 | 45 | 257 | 4.3 | 7.0 | 0.00 | 0.09 | 0.00 | 79 | 1006.7 |
| 20260505000003 | 46 | 248 | 5.2 | 7.8 | 0.00 | 0.09 | 0.00 | 76 | 1006.7 |
| 20260504234504 | 46 | 257 | 4.3 | 8.7 | 0.00 | 0.09 | 0.00 | 75 | 1006.7 |
| 20260504231503 | 47 | 255 | 6.1 | 10.4 | 0.00 | 0.09 | 0.00 | 73 | 1006.8 |
| 20260504230005 | 47 | 247 | 6.1 | 10.4 | 0.00 | 0.09 | 0.00 | 72 | 1006.9 |
| 20260504224503 | 47 | 251 | 4.3 | 7.8 | 0.00 | 0.09 | 0.00 | 71 | 1006.9 |